Probability
5 4 6 9 6 2 1 0 0 0 0 0 0 0 0 0 0 0 0 0 0 0 1 2 4 6 6 5 5 5 4 4 3 1 0 0 0 0 0 0 1 0 1 1 1 0 0 0 0
5 5 7 8 5 2 0 0 0 0 0 0 0 0 0 0 0 0 0 0 0 0 1 2 4 6 6 6 6 6 5 4 2 1 0 0 0 0 0 0 1 0 0 0 0 0 0 0 0
4 5 7 6 3 1 0 0 0 0 0 0 0 0 0 0 0 0 0 0 0 0 0 1 4 6 6 6 7 7 5 4 1 0 0 0 0 0 0 0 0 0 0 0 0 0 0 0 0
4 6 6 4 1 1 0 0 0 0 0 0 0 0 0 0 1 0 0 0 0 0 0 1 4 6 6 6 7 6 5 3 1 0 0 0 0 0 0 0 0 0 0 0 0 0 0 1 1
6 6 4 2 0 0 0 0 0 0 0 0 0 0 0 0 0 0 0 0 0 0 0 2 5 6 6 6 6 6 6 4 2 0 1 1 1 0 0 0 0 0 0 0 0 0 0 1 2
5 4 2 1 0 0 0 0 0 0 0 0 0 0 0 0 0 0 0 0 0 0 0 1 4 6 7 7 7 7 7 6 3 2 1 2 2 1 0 0 0 0 0 0 0 0 0 1 1
3 3 1 0 0 0 0 0 0 0 0 0 0 0 0 0 0 0 0 0 0 0 0 0 2 4 6 8 8 8 8 7 6 4 2 2 2 1 0 0 1 1 1 0 0 0 0 0 0
2 2 1 0 0 0 0 0 0 0 0 0 0 0 0 0 0 0 0 0 0 0 0 0 1 3 4 6 7 9 9 9 8 6 4 3 3 1 0 1 2 2 1 0 0 0 0 0 0
1 1 1 0 0 0 0 0 0 0 0 0 0 0 0 0 0 0 0 0 0 0 0 0 1 2 3 4 5 7 9 10 9 7 5 4 3 1 0 1 2 3 2 1 1 1 0 0 0
0 0 0 0 0 0 0 0 0 0 0 0 0 0 0 0 0 0 0 0 0 0 0 0 1 2 3 4 4 6 8 9 8 7 4 3 2 1 0 1 2 2 2 2 2 1 0 0 0
0 0 0 0 0 0 0 0 0 0 0 0 0 0 0 0 0 0 0 0 0 0 0 0 0 1 2 4 6 7 10 10 9 7 5 3 2 1 0 0 1 1 2 2 2 1 0 0 0
0 0 0 0 0 0 0 0 0 0 0 0 0 0 1 1 1 0 0 0 0 0 0 0 1 1 2 4 6 8 9 9 10 9 5 3 2 1 0 0 0 0 2 3 2 1 0 0 0
0 0 0 0 0 0 0 0 0 0 0 0 0 1 1 2 1 0 0 0 0 0 0 0 1 2 3 4 5 6 6 6 8 10 7 3 2 1 0 0 0 0 1 2 2 1 0 0 0
0 0 0 0 0 0 0 0 0 0 0 0 1 2 3 2 1 1 0 0 0 0 0 0 1 2 3 4 4 4 3 4 7 8 6 5 3 1 0 0 0 0 0 1 1 1 0 0 0
0 0 0 0 0 0 0 0 0 0 0 0 1 2 3 3 3 2 1 0 0 0 0 0 0 0 1 2 2 1 2 3 6 6 6 5 3 1 0 0 0 0 0 1 1 0 1 1 1
0 0 0 0 0 0 0 0 0 0 0 0 1 2 3 3 3 2 1 0 0 0 0 0 0 0 0 0 1 1 2 3 5 6 5 3 1 0 0 0 0 0 0 1 1 1 2 3 2
0 0 0 0 0 0 0 0 0 0 0 0 1 2 3 3 3 2 1 0 0 0 0 0 0 0 0 0 1 2 3 4 6 6 5 2 0 0 0 0 0 0 0 1 2 2 3 3 2
0 0 0 0 0 0 0 0 0 0 0 0 0 1 2 4 3 1 0 0 0 1 0 0 0 0 0 0 0 2 3 4 6 6 5 3 1 0 1 2 1 0 0 0 1 2 2 1 1
0 0 0 0 0 0 0 0 0 0 0 0 0 1 3 5 4 1 0 0 0 1 0 0 0 0 0 0 1 2 3 4 5 5 5 4 3 1 2 3 3 1 0 0 1 1 1 1 0
0 0 0 0 0 0 0 0 0 0 0 0 1 2 4 5 4 2 1 1 1 2 1 0 0 0 0 0 1 2 2 2 3 3 5 6 5 2 1 2 2 1 0 0 0 0 0 0 0
0 0 0 0 0 0 0 0 0 0 0 0 2 4 5 5 3 3 2 3 3 3 2 1 1 0 0 0 1 1 1 1 1 3 6 8 6 3 1 1 1 0 0 0 0 0 1 1 0
0 0 0 0 0 0 0 0 0 1 1 1 2 4 5 4 3 4 4 4 5 5 4 3 3 1 0 0 0 0 1 1 2 4 7 8 6 5 3 1 0 0 0 0 0 0 1 1 1
0 0 0 0 0 0 0 0 0 0 1 1 2 3 4 3 3 4 5 5 5 5 5 5 5 3 1 1 1 1 2 3 4 5 6 7 6 5 3 1 1 1 0 0 1 1 1 1 0
0 0 0 0 0 0 0 0 0 0 1 2 3 3 4 3 4 5 6 5 4 4 5 6 6 6 4 3 3 4 5 6 7 6 6 6 6 5 3 3 3 3 2 2 3 3 2 1 1
0 0 0 0 0 0 0 0 0 0 0 1 3 3 4 3 4 6 8 7 5 5 6 7 7 8 7 6 7 8 8 10 10 8 7 6 6 5 4 4 4 5 5 5 5 5 5 4 3
0 0 0 0 0 0 0 0 0 1 0 1 2 3 2 2 3 7 10 10 8 7 7 9 10 10 9 9 10 11 10 10 11 10 7 7 7 6 6 6 6 6 6 7 7 8 8 7 7
0 0 0 0 0 0 0 0 0 0 1 2 3 2 1 1 2 5 8 9 8 8 9 11 12 12 10 10 11 13 12 10 11 11 10 8 9 9 9 9 8 8 8 8 9 10 12 12 11
0 0 0 0 0 0 0 0 0 0 2 3 3 2 1 0 0 2 5 7 6 6 8 10 12 12 11 11 11 12 11 11 12 12 13 12 13 13 13 11 11 10 10 11 12 12 14 15 15
0 0 0 0 0 0 0 0 0 1 3 5 4 2 1 0 0 2 5 7 7 6 6 9 11 13 12 12 13 13 14 15 15 16 17 18 17 16 14 14 13 12 12 12 13 12 13 14 15
0 0 0 0 0 0 0 0 0 1 3 5 4 2 2 1 1 3 6 9 8 6 6 8 11 13 13 13 15 17 18 20 20 19 21 21 19 16 15 15 15 14 12 13 13 12 13 13 12
Wind_Speed
11 8 5 5 5 2 9 8 6 6 6 7 6 5 7 8 8 7 6 5 4 4 7 9 7 7 8 8 8 8 8 8 7 7 7 7 8 8 8 9 10 10 10 10 10 10 11 11 11
8 5 5 5 1 6 9 7 7 8 6 5 5 5 6 8 7 6 5 5 4 5 7 8 8 8 8 8 8 8 8 8 7 7 8 8 8 8 9 10 10 10 10 10 10 10 10 10 10
6 6 5 2 6 8 9 8 8 8 5 3 5 6 6 7 6 5 5 5 6 7 7 10 8 8 8 7 7 7 7 7 7 7 8 8 8 8 9 10 10 10 10 10 10 10 10 9 9
5 5 4 2 11 10 8 7 6 6 6 5 4 7 7 6 4 6 6 6 7 8 7 10 9 8 7 7 7 6 6 7 7 7 8 8 8 9 10 10 9 9 10 9 9 9 9 8 9
5 4 2 8 12 10 8 7 4 5 5 6 6 8 8 6 7 8 7 6 6 7 7 9 9 8 7 7 7 6 6 6 6 7 7 7 8 8 9 9 9 9 9 9 9 9 8 8 8
4 3 4 9 11 8 8 6 7 8 8 7 7 8 8 6 7 6 6 6 6 7 7 9 10 8 7 7 6 6 6 6 6 6 6 7 8 9 8 9 9 9 9 8 8 8 7 7 7
3 2 7 9 9 9 8 6 6 7 8 7 5 7 8 7 6 6 6 7 6 6 6 6 7 8 8 7 6 5 5 6 5 6 5 6 7 8 8 8 8 8 8 8 7 7 6 7 6
4 1 6 8 9 10 7 6 6 6 8 6 3 5 7 7 6 7 7 7 6 6 5 5 5 5 4 6 8 6 5 5 5 5 5 5 7 8 7 8 8 7 7 7 6 6 7 6 6
4 0 7 8 8 8 6 6 6 6 9 8 7 8 9 8 7 7 7 7 6 5 4 4 4 4 4 4 6 6 7 5 5 6 6 5 4 5 7 8 7 7 7 6 5 6 6 5 6
1 5 9 7 7 7 6 6 6 7 9 9 9 10 10 9 7 6 6 6 6 5 4 4 4 4 3 3 3 3 3 4 3 3 3 3 3 3 4 9 7 6 7 7 6 5 5 4 4
3 6 7 6 6 6 7 7 5 6 8 7 8 10 9 8 7 6 6 5 6 5 4 4 4 3 2 2 2 2 1 2 3 3 3 2 2 3 3 3 5 5 6 5 6 5 2 3 2
5 6 5 5 5 5 6 6 6 7 8 8 9 9 9 7 6 6 6 5 5 4 4 4 4 3 2 2 1 1 2 2 2 3 2 2 2 2 2 2 2 2 2 3 2 2 2 3 3
5 6 5 5 5 6 6 6 7 8 9 9 10 10 8 7 7 6 5 5 5 4 3 4 3 3 2 1 0 1 1 2 3 2 3 2 2 2 3 2 2 2 2 3 2 3 3 2 2
5 5 5 5 6 6 5 6 6 8 8 9 9 8 8 7 7 6 5 4 4 3 3 3 2 3 2 2 1 1 1 2 2 2 3 2 2 2 2 2 2 2 2 2 2 3 2 2 2
4 5 5 5 4 4 3 5 7 8 8 8 8 8 7 7 6 5 5 4 4 3 3 2 2 3 2 1 1 1 1 1 2 2 3 2 2 2 2 2 2 2 2 2 2 2 2 2 2
5 3 4 5 2 2 3 5 8 7 8 8 7 8 7 6 5 5 5 4 3 3 3 2 2 3 2 1 0 0 1 1 1 2 2 3 2 2 2 2 2 2 1 2 2 2 2 2 2
3 2 4 4 2 1 1 4 7 6 6 7 7 7 7 6 5 5 4 4 4 3 2 2 2 2 1 1 1 1 1 1 1 1 2 2 2 2 2 1 1 1 2 2 1 3 1 2 2
2 2 3 3 3 1 1 3 5 6 5 6 7 7 6 6 6 5 5 5 4 3 3 2 3 2 1 1 1 1 1 1 1 2 2 2 2 2 1 2 2 1 2 2 2 2 2 1 1
1 1 2 3 2 1 1 2 4 6 6 5 6 7 6 6 6 6 6 5 5 4 4 3 2 2 1 1 1 1 1 1 2 2 2 2 1 2 1 1 2 1 2 1 2 2 3 2 2
2 1 2 3 2 2 0 1 4 6 6 5 6 6 7 7 7 7 6 6 5 5 4 4 3 3 2 1 1 0 0 1 1 1 2 2 2 2 2 2 1 2 1 2 2 1 1 2 2
3 2 1 1 2 4 3 4 5 6 6 6 6 6 7 7 8 8 7 7 6 5 5 4 3 3 3 2 2 2 2 1 1 2 2 2 2 3 2 2 1 1 1 2 1 1 2 1 2
2 1 2 2 4 1 3 1 4 5 6 7 7 8 8 8 8 8 8 7 7 6 6 4 4 4 3 3 2 2 1 1 1 1 2 2 2 2 2 2 1 1 1 2 2 2 1 2 2
1 1 3 4 4 3 3 4 5 5 4 6 7 8 8 8 8 8 8 8 7 7 6 5 5 4 4 3 3 3 2 1 1 1 2 2 2 2 2 2 2 2 2 1 1 1 2 2 2
4 5 5 6 6 3 1 4 2 3 2 3 5 6 7 8 8 8 8 8 7 7 6 6 6 5 5 4 4 4 3 3 2 2 2 2 2 2 3 2 2 2 1 2 2 2 3 1 1
7 7 5 5 4 0 2 3 3 3 1 1 3 5 7 7 8 8 8 8 8 7 7 6 6 5 5 5 5 5 4 4 4 3 2 2 2 2 2 2 2 2 2 2 2 2 1 2 1
6 8 5 4 3 1 3 1 4 4 2 1 2 4 6 6 7 7 8 8 8 7 7 6 6 5 5 6 5 5 5 4 3 3 2 2 2 1 1 2 2 2 2 2 2 2 2 2 2
6 6 6 7 6 5 1 2 4 3 2 2 3 4 6 6 7 8 8 8 8 7 7 7 6 5 5 5 5 5 4 3 2 3 3 2 1 2 2 2 2 2 2 1 2 1 1 2 2
5 4 5 7 5 6 4 3 1 2 2 2 3 3 4 6 6 7 7 8 7 7 7 6 6 5 4 5 5 4 4 4 3 3 2 2 2 2 2 2 2 2 2 2 2 2 2 2 1
5 6 5 6 7 7 4 2 5 3 2 1 2 2 3 4 5 6 6 7 7 7 7 7 6 5 5 4 4 4 4 4 4 3 3 3 2 2 2 2 2 2 2 2 2 2 3 2 2
6 6 7 7 6 6 7 2 6 3 2 2 2 2 2 2 3 5 6 6 7 7 6 7 6 6 5 5 5 4 4 4 4 4 3 3 3 3 3 2 2 2 2 2 3 3 3 3 2
Wind_Direction
175 180 205 233 231 107 64 62 64 76 71 63 55 48 47 37 27 63 77 87 92 109 120 128 117 117 110 105 104 102 102 100 98 101 103 101 98 101 106 113 114 111 110 113 115 119 121 122 121
174 187 223 239 297 73 70 64 67 63 80 95 77 65 64 61 54 80 95 95 107 111 120 114 114 116 112 107 104 102 102 98 94 93 96 95 90 91 101 110 112 110 111 112 114 117 118 120 121
182 223 258 268 49 55 67 68 77 84 92 86 82 60 51 60 72 79 90 112 112 103 109 112 117 117 113 109 105 103 101 97 94 92 92 90 89 90 96 107 110 110 110 111 113 115 117 121 122
211 221 232 64 66 57 64 75 86 99 84 73 89 84 78 57 60 86 104 111 112 113 113 110 117 116 114 112 107 100 97 96 94 94 91 88 91 93 100 105 108 109 110 108 110 112 114 119 122
240 252 140 79 69 65 67 72 74 78 80 83 86 90 84 71 84 98 107 113 112 109 109 111 116 120 117 110 109 108 102 99 98 100 98 98 98 99 102 102 100 103 107 106 107 109 110 114 118
241 247 72 72 73 73 74 80 86 84 92 90 94 96 84 93 98 101 104 102 102 105 108 113 128 129 123 119 115 112 111 109 106 106 104 107 106 104 105 104 103 104 103 103 105 109 110 117 117
300 24 66 73 76 76 69 72 76 84 87 80 88 95 104 103 98 105 102 101 98 99 104 108 120 128 137 134 120 113 114 113 113 112 109 112 116 115 111 110 110 109 107 105 106 107 111 116 118
298 306 79 71 70 71 78 78 69 74 80 85 76 90 105 106 112 110 106 104 98 93 96 107 108 108 119 122 124 127 124 123 131 130 125 134 134 131 129 128 119 116 113 112 114 117 121 124 127
259 356 65 54 57 74 89 90 85 84 100 91 73 74 100 120 125 120 112 105 94 87 88 97 98 100 110 115 126 140 142 140 158 146 151 168 140 130 136 112 119 121 116 113 114 127 128 141 141
299 52 59 48 56 80 83 83 106 115 105 98 97 97 112 127 127 117 109 107 103 96 94 92 87 92 106 108 118 128 124 126 128 111 130 133 119 114 115 119 126 128 131 133 124 126 145 179 144
46 55 67 71 66 78 89 85 98 111 98 101 114 120 126 129 127 117 105 98 96 102 100 94 91 90 90 95 108 104 110 115 126 120 123 114 129 129 125 132 141 143 153 144 135 153 147 124 100
79 74 75 82 77 78 83 90 86 76 80 103 115 124 130 132 118 109 106 104 103 101 98 92 92 81 64 59 95 128 123 124 120 119 115 111 108 107 104 111 103 114 114 111 117 118 118 107 105
87 87 87 97 98 91 95 91 89 91 102 114 121 127 129 127 120 113 110 110 107 108 103 93 86 91 95 99 330 92 114 126 120 119 118 110 122 113 109 101 101 108 112 130 128 122 116 117 134
84 101 105 107 103 107 104 105 106 101 116 122 128 131 130 124 122 122 123 121 118 115 105 103 99 106 109 120 119 77 117 128 123 116 109 124 122 118 122 128 120 113 117 110 125 121 127 126 114
141 137 123 114 118 121 131 111 102 120 132 133 134 133 134 131 131 131 134 135 127 129 121 117 119 111 112 126 152 137 119 115 121 125 128 136 131 128 139 128 139 111 113 126 137 130 136 146 138
190 182 112 104 116 147 240 97 111 139 147 142 142 142 145 143 142 138 139 141 132 130 134 145 131 122 123 112 288 112 101 109 116 119 122 126 121 142 150 130 119 119 133 126 124 150 127 116 125
189 89 84 108 128 170 258 92 122 154 160 151 155 155 159 155 154 149 147 147 138 137 146 154 143 137 140 154 170 160 129 113 117 114 108 120 137 143 140 122 102 142 110 113 130 105 114 122 119
48 59 76 79 109 204 185 101 130 159 176 164 161 162 167 164 159 158 159 151 146 145 152 164 163 149 163 163 157 158 132 141 122 114 104 118 141 141 142 135 112 112 119 123 117 123 131 142 143
315 10 62 65 100 234 166 142 148 159 179 177 174 171 172 167 157 161 166 165 161 161 166 171 183 159 167 162 183 155 137 137 127 121 115 137 136 125 131 93 112 120 111 114 137 148 152 146 141
240 249 101 116 128 257 220 181 161 166 181 184 182 181 179 175 169 169 176 176 176 173 177 178 188 184 186 157 158 123 52 119 110 103 119 135 137 142 150 146 161 127 147 160 153 159 167 155 162
240 293 1 79 177 202 236 179 166 172 183 187 194 192 187 186 182 179 182 184 183 183 186 189 188 186 188 176 172 154 157 171 137 146 134 135 146 159 158 158 173 170 199 149 164 179 180 173 172
251 342 255 217 237 160 269 296 137 169 185 195 200 201 195 188 188 185 184 187 188 188 186 187 186 188 183 185 194 196 174 154 120 147 121 135 143 160 168 170 180 219 205 164 204 161 202 215 191
324 170 237 250 263 260 215 284 112 153 197 202 204 203 199 191 188 188 188 187 190 188 185 180 182 187 185 189 185 204 208 196 179 150 137 165 152 168 179 181 193 215 219 195 220 182 232 234 257
169 192 207 229 244 251 359 286 84 116 237 216 194 195 197 193 188 187 186 184 188 187 186 182 180 186 187 192 196 203 202 206 208 191 170 187 165 161 165 190 201 219 228 211 214 211 207 233 282
219 239 232 221 223 173 101 271 49 59 35 255 193 183 185 187 188 186 186 184 187 188 187 186 184 188 188 192 199 202 204 203 203 214 189 203 182 164 164 193 204 218 221 224 213 213 216 213 218
233 261 278 291 297 159 168 274 71 60 54 139 167 165 170 178 181 185 185 185 187 187 186 187 186 192 192 193 193 199 202 210 201 195 212 201 214 164 144 181 190 199 209 212 191 205 191 190 220
229 247 285 276 272 275 209 137 132 97 82 104 120 146 164 169 176 180 181 184 185 185 182 184 184 190 194 194 189 192 198 211 200 183 198 202 197 178 176 196 187 182 190 199 204 173 181 179 208
280 263 250 261 267 265 230 211 91 83 86 103 106 128 155 165 173 175 177 182 183 183 179 183 185 190 194 194 198 189 188 194 190 194 187 183 184 190 192 200 188 178 183 186 194 175 155 180 185
198 215 244 260 274 280 275 96 66 67 72 93 110 118 143 166 170 169 171 179 181 181 179 181 183 188 191 195 195 196 187 186 185 185 182 176 179 182 193 189 182 190 195 191 194 192 171 181 178
240 237 232 246 250 264 282 98 88 75 86 81 84 102 116 134 154 161 164 172 179 181 182 182 184 190 191 187 186 189 183 184 185 179 171 171 174 180 175 182 185 203 199 196 195 201 186 185 186